WBANNO,USDM_WEEK,LONGITUDE,LATITUDE,SMVWC_5_CM_MEAN,SMANOM_5_CM_MEAN,SMPERC_5_CM_30COUNTS,SMPERC_5_CM_70COUNTS,SMVWC_10_CM_MEAN,SMANOM_10_CM_MEAN,SMPERC_10_CM_30COUNTS,SMPERC_10_CM_70COUNTS,SMVWC_20_CM_MEAN,SMANOM_20_CM_MEAN,SMPERC_20_CM_30COUNTS,SMPERC_20_CM_70COUNTS,SMVWC_50_CM_MEAN,SMANOM_50_CM_MEAN,SMPERC_50_CM_30COUNTS,SMPERC_50_CM_70COUNTS,SMVWC_100_CM_MEAN,SMANOM_100_CM_MEAN,SMPERC_100_CM_30COUNTS,SMPERC_100_CM_70COUNTS,SMVWC_TOP_CM_MEAN,SMANOM_TOP_CM_MEAN,SMPERC_TOP_CM_30COUNTS,SMPERC_TOP_CM_70COUNTS,SMVWC_COLUMN_CM_MEAN,SMANOM_COLUMN_CM_MEAN,SMPERC_COLUMN_CM_30COUNTS,SMPERC_COLUMN_CM_70COUNTS
93245,20110720,-123.07,38.32,,,,,,,,,,,,,,,,,,,,,,,,,,,,
93245,20110721,-123.07,38.32,,,,,,,,,,,,,,,,,,,,,,,,,,,,
93245,20110722,-123.07,38.32,,,,,,,,,,,,,,,,,,,,,,,,,,,,
93245,20110723,-123.07,38.32,,,,,,,,,,,,,,,,,,,,,,,,,,,,
93245,20110724,-123.07,38.32,,,,,,,,,,,,,,,,,,,,,,,,,,,,
93245,20110725,-123.07,38.32,,,,,,,,,,,,,,,,,,,,,,,,,,,,
93245,20110726,-123.07,38.32,0.087,6.54,0,1,0.116,2.93,0,1,0.114,2.57,0,1,0.098,1.47,0,1,0.161,3.95,0,1,0.102,6.01,0,1,0.115,4.13,0,1
93245,20110727,-123.07,38.32,0.087,6.63,0,1,0.116,2.94,0,1,0.114,2.58,0,1,0.098,1.48,0,1,0.162,4.02,0,1,0.102,6.07,0,1,0.116,4.15,0,1
93245,20110728,-123.07,38.32,0.086,6.7,0,1,0.116,2.95,0,1,0.114,2.59,0,1,0.099,1.49,0,1,0.163,4.09,0,1,0.101,6.09,0,1,0.116,4.17,0,1
93245,20110729,-123.07,38.32,0.085,6.71,0,1,0.116,2.94,0,1,0.114,2.6,0,1,0.098,1.49,0,1,0.164,4.14,0,1,0.1,6.07,0,1,0.115,4.16,0,1
93245,20110730,-123.07,38.32,0.083,6.67,0,1,0.116,2.93,0,1,0.114,2.62,0,1,0.098,1.49,0,1,0.165,4.18,0,1,0.1,6.04,0,1,0.115,4.15,0,1
93245,20110731,-123.07,38.32,0.082,6.61,0,1,0.116,2.91,0,1,0.114,2.63,0,1,0.098,1.5,0,1,0.165,4.21,0,1,0.099,6.02,0,1,0.115,4.14,0,1
93245,20110801,-123.07,38.32,0.08,6.53,0,1,0.116,2.9,0,1,0.114,2.63,0,1,0.098,1.5,0,1,0.165,4.25,0,1,0.098,5.99,0,1,0.115,4.12,0,1
93245,20110802,-123.07,38.32,0.078,6.41,0,1,0.115,2.88,0,1,0.114,2.63,0,1,0.098,1.5,0,1,0.166,4.28,0,1,0.097,5.92,0,1,0.114,4.09,0,1
93245,20110803,-123.07,38.32,0.075,6.27,0,1,0.115,2.87,0,1,0.114,2.63,0,1,0.098,1.51,0,1,0.166,4.29,0,1,0.095,5.85,0,1,0.114,4.05,0,1
93245,20110804,-123.07,38.32,0.072,6.13,0,1,0.115,2.85,0,1,0.114,2.62,0,1,0.098,1.52,0,1,0.166,4.26,0,1,0.094,5.77,0,1,0.113,4,0,1
93245,20110805,-123.07,38.32,0.07,6.01,0,1,0.115,2.84,0,1,0.114,2.62,0,1,0.099,1.52,0,1,0.166,4.23,0,1,0.092,5.69,0,1,0.113,3.96,0,1
93245,20110806,-123.07,38.32,0.067,5.9,0,1,0.115,2.82,0,1,0.114,2.61,0,1,0.099,1.53,0,1,0.166,4.19,0,1,0.091,5.62,0,1,0.112,3.91,0,1
93245,20110807,-123.07,38.32,0.064,5.8,0,1,0.114,2.79,0,1,0.114,2.59,0,1,0.099,1.53,0,1,0.166,4.15,0,1,0.089,5.52,0,1,0.111,3.86,0,1
93245,20110808,-123.07,38.32,0.061,5.69,0,1,0.114,2.77,0,1,0.113,2.58,0,1,0.099,1.53,0,1,0.166,4.11,0,1,0.088,5.43,0,1,0.111,3.8,0,1
93245,20110809,-123.07,38.32,0.058,5.6,0,1,0.114,2.75,0,1,0.113,2.57,0,1,0.099,1.52,0,1,0.166,4.07,0,1,0.086,5.33,0,1,0.11,3.74,0,1
93245,20110810,-123.07,38.32,0.056,5.54,0,1,0.114,2.73,0,1,0.113,2.55,0,1,0.099,1.51,0,1,0.166,4.04,0,1,0.085,5.23,0,1,0.109,3.69,0,1
93245,20110811,-123.07,38.32,0.054,5.48,0,1,0.113,2.71,0,1,0.113,2.55,0,1,0.099,1.51,0,1,0.166,4.01,0,1,0.083,5.13,0,1,0.109,3.65,0,1
93245,20110812,-123.07,38.32,0.051,5.41,0,1,0.113,2.69,0,1,0.112,2.53,0,1,0.098,1.5,0,1,0.165,3.99,0,1,0.082,5.02,0,1,0.108,3.59,0,1
93245,20110813,-123.07,38.32,0.049,5.34,0,1,0.112,2.67,0,1,0.112,2.51,0,1,0.098,1.49,0,1,0.165,3.97,0,1,0.081,4.89,0,1,0.107,3.54,0,1
93245,20110814,-123.07,38.32,0.047,5.27,0,1,0.111,2.66,0,1,0.112,2.5,0,1,0.098,1.48,0,1,0.165,3.95,0,1,0.079,4.75,0,1,0.107,3.49,0,1
93245,20110815,-123.07,38.32,0.045,5.17,0,1,0.111,2.64,0,1,0.112,2.49,0,1,0.098,1.47,0,1,0.165,3.92,0,1,0.078,4.62,0,1,0.106,3.44,0,1
93245,20110816,-123.07,38.32,0.042,5.05,0,1,0.11,2.62,0,1,0.111,2.47,0,1,0.098,1.47,0,1,0.165,3.89,0,1,0.076,4.47,0,1,0.105,3.38,0,1
93245,20110817,-123.07,38.32,0.04,4.9,0,1,0.109,2.59,0,1,0.111,2.46,0,1,0.098,1.47,0,1,0.166,3.85,0,1,0.075,4.29,0,1,0.105,3.31,0,1
93245,20110818,-123.07,38.32,0.037,4.69,0,1,0.108,2.55,0,1,0.11,2.44,0,1,0.098,1.46,0,1,0.166,3.82,0,1,0.073,4.1,0,1,0.104,3.24,0,1
93245,20110819,-123.07,38.32,0.035,4.46,0,1,0.108,2.5,0,1,0.11,2.43,0,1,0.097,1.45,0,1,0.165,3.79,0,1,0.071,3.9,0,1,0.103,3.17,0,1
93245,20110820,-123.07,38.32,0.032,4.23,0,1,0.107,2.46,0,1,0.109,2.42,0,1,0.097,1.44,0,1,0.165,3.75,0,1,0.07,3.72,0,1,0.102,3.1,0,1
93245,20110821,-123.07,38.32,0.03,3.97,0,1,0.106,2.4,0,1,0.109,2.4,0,1,0.097,1.44,0,1,0.165,3.71,0,1,0.068,3.53,0,1,0.101,3.03,0,1
93245,20110822,-123.07,38.32,0.028,3.77,0,1,0.105,2.34,0,1,0.108,2.39,0,1,0.097,1.43,0,1,0.165,3.68,0,1,0.067,3.35,0,1,0.101,2.96,0,1
93245,20110823,-123.07,38.32,0.027,3.58,0,1,0.104,2.27,0,1,0.108,2.37,0,1,0.097,1.41,0,1,0.165,3.65,0,1,0.065,3.19,0,1,0.1,2.9,0,1
93245,20110824,-123.07,38.32,0.026,3.41,0,1,0.103,2.21,0,1,0.107,2.33,0,1,0.096,1.4,0,1,0.165,3.62,0,1,0.064,3.04,0,1,0.099,2.84,0,1
93245,20110825,-123.07,38.32,0.025,3.25,0,1,0.102,2.16,0,1,0.106,2.29,0,1,0.096,1.37,0,1,0.165,3.59,0,1,0.063,2.91,0,1,0.099,2.78,0,1
93245,20110826,-123.07,38.32,0.024,3.11,0,1,0.101,2.11,0,1,0.105,2.25,0,1,0.096,1.34,0,1,0.164,3.56,0,1,0.062,2.8,0,1,0.098,2.73,0,1
93245,20110827,-123.07,38.32,0.023,2.97,0,1,0.1,2.06,0,1,0.105,2.2,0,1,0.095,1.31,0,1,0.164,3.53,0,1,0.061,2.69,0,1,0.097,2.68,0,1
93245,20110828,-123.07,38.32,0.022,2.84,0,1,0.099,2.02,0,1,0.104,2.15,0,1,0.095,1.28,0,1,0.164,3.51,0,1,0.061,2.59,0,1,0.097,2.63,0,1
93245,20110829,-123.07,38.32,0.021,2.68,0,1,0.099,1.98,0,1,0.103,2.09,0,1,0.095,1.25,0,1,0.164,3.47,0,1,0.06,2.49,0,1,0.096,2.57,0,1
93245,20110830,-123.07,38.32,0.02,2.52,0,1,0.098,1.95,0,1,0.102,2.05,0,1,0.094,1.21,0,1,0.164,3.45,0,1,0.059,2.4,0,1,0.096,2.53,0,1
93245,20110831,-123.07,38.32,0.019,2.37,0,1,0.097,1.92,0,1,0.101,2,0,1,0.094,1.18,0,1,0.164,3.42,0,1,0.058,2.31,0,1,0.095,2.48,0,1
93245,20110901,-123.07,38.32,0.018,2.26,0,1,0.097,1.9,0,1,0.1,1.96,0,1,0.093,1.15,0,1,0.164,3.4,0,1,0.058,2.23,0,1,0.095,2.43,0,1
93245,20110902,-123.07,38.32,0.018,2.15,0,1,0.096,1.87,0,1,0.1,1.93,0,1,0.092,1.12,0,1,0.164,3.37,0,1,0.057,2.16,0,1,0.094,2.39,0,1
93245,20110903,-123.07,38.32,0.017,2.06,0,1,0.096,1.84,0,1,0.099,1.9,0,1,0.092,1.09,0,1,0.164,3.35,0,1,0.057,2.1,0,1,0.094,2.35,0,1
93245,20110904,-123.07,38.32,0.016,1.91,0,1,0.096,1.82,0,1,0.098,1.88,0,1,0.091,1.06,0,1,0.164,3.33,0,1,0.056,2.04,0,1,0.093,2.32,0,1
93245,20110905,-123.07,38.32,0.016,1.77,0,1,0.095,1.8,0,1,0.098,1.86,0,1,0.091,1.03,0,1,0.164,3.31,0,1,0.056,1.99,0,1,0.093,2.28,0,1
93245,20110906,-123.07,38.32,0.015,1.63,0,1,0.095,1.78,0,1,0.097,1.85,0,1,0.09,0.99,0,1,0.164,3.3,0,1,0.055,1.93,0,1,0.092,2.25,0,1
93245,20110907,-123.07,38.32,0.015,1.51,0,1,0.094,1.77,0,1,0.097,1.83,0,1,0.089,0.96,0,1,0.164,3.29,0,1,0.055,1.89,0,1,0.092,2.22,0,1
93245,20110908,-123.07,38.32,0.014,1.39,0,1,0.094,1.75,0,1,0.096,1.82,0,1,0.089,0.93,0,1,0.164,3.28,0,1,0.054,1.85,0,1,0.091,2.2,0,1
93245,20110909,-123.07,38.32,0.014,1.23,0,0.994,0.094,1.74,0,1,0.096,1.82,0,1,0.088,0.9,0,1,0.163,3.26,0,1,0.054,1.8,0,1,0.091,2.17,0,1
93245,20110910,-123.07,38.32,0.013,1.08,0,0.988,0.093,1.72,0,1,0.095,1.82,0,1,0.088,0.88,0,1,0.163,3.23,0,1,0.053,1.75,0,1,0.091,2.14,0,1
93245,20110911,-123.07,38.32,0.013,0.98,0,0.976,0.093,1.7,0,1,0.095,1.82,0,1,0.088,0.86,0,1,0.163,3.21,0,1,0.053,1.71,0,1,0.09,2.12,0,1
93245,20110912,-123.07,38.32,0.013,0.91,0,0.976,0.092,1.68,0,1,0.094,1.81,0,1,0.087,0.84,0,1,0.163,3.19,0,1,0.052,1.68,0,1,0.09,2.1,0,1
93245,20110913,-123.07,38.32,0.013,0.89,0,0.964,0.092,1.66,0,1,0.094,1.8,0,1,0.087,0.82,0,1,0.163,3.17,0,1,0.052,1.66,0,1,0.09,2.08,0,1
93245,20110914,-123.07,38.32,0.012,0.85,0,0.964,0.092,1.64,0,1,0.093,1.8,0,1,0.087,0.81,0,1,0.163,3.15,0,1,0.052,1.63,0,1,0.089,2.06,0,1
93245,20110915,-123.07,38.32,0.012,0.79,0,0.94,0.091,1.61,0,1,0.093,1.8,0,1,0.087,0.8,0,1,0.163,3.13,0,1,0.052,1.59,0,1,0.089,2.05,0,1
93245,20110916,-123.07,38.32,0.012,0.74,0,0.893,0.091,1.59,0,1,0.093,1.78,0,1,0.086,0.79,0,1,0.163,3.11,0,1,0.051,1.56,0,1,0.089,2.03,0,1
93245,20110917,-123.07,38.32,0.012,0.68,0,0.845,0.09,1.56,0,1,0.093,1.76,0,1,0.086,0.79,0,1,0.162,3.1,0,1,0.051,1.52,0,1,0.089,2.01,0,1
93245,20110918,-123.07,38.32,0.011,0.63,0,0.792,0.09,1.54,0,1,0.092,1.73,0,1,0.086,0.77,0,1,0.162,3.08,0,1,0.05,1.48,0,1,0.088,1.99,0,1
93245,20110919,-123.07,38.32,0.011,0.56,0.006,0.744,0.089,1.51,0,1,0.092,1.7,0,1,0.085,0.77,0,1,0.162,3.07,0,1,0.05,1.44,0,1,0.088,1.96,0,1
93245,20110920,-123.07,38.32,0.011,0.46,0.018,0.69,0.088,1.48,0,1,0.091,1.66,0,1,0.085,0.76,0,1,0.162,3.05,0,1,0.049,1.39,0,1,0.087,1.93,0,1
93245,20110921,-123.07,38.32,0.01,0.32,0.036,0.583,0.088,1.45,0,1,0.091,1.61,0,1,0.085,0.74,0,1,0.161,3.03,0,1,0.049,1.33,0,1,0.087,1.89,0,1
93245,20110922,-123.07,38.32,0.01,0.21,0.048,0.488,0.087,1.42,0,1,0.09,1.56,0,1,0.084,0.71,0,0.982,0.161,3.03,0,1,0.048,1.27,0,1,0.086,1.85,0,1
93245,20110923,-123.07,38.32,0.009,0.14,0.048,0.429,0.086,1.39,0,1,0.09,1.51,0,1,0.084,0.69,0,0.958,0.161,3.02,0,1,0.048,1.22,0,1,0.086,1.82,0,1
93245,20110924,-123.07,38.32,0.009,0.06,0.065,0.363,0.086,1.35,0,1,0.089,1.43,0,1,0.083,0.66,0,0.869,0.161,3.01,0,1,0.047,1.18,0,1,0.086,1.78,0,1
93245,20110925,-123.07,38.32,0.009,-0.01,0.119,0.298,0.085,1.31,0,1,0.089,1.35,0,1,0.083,0.63,0,0.768,0.16,2.99,0,1,0.047,1.12,0,1,0.085,1.74,0,1
93245,20110926,-123.07,38.32,0.008,-0.1,0.149,0.202,0.085,1.27,0,1,0.088,1.26,0,1,0.083,0.6,0,0.673,0.16,2.99,0,1,0.046,1.06,0,1,0.085,1.7,0,1
93245,20110927,-123.07,38.32,0.008,-0.16,0.179,0.137,0.084,1.22,0,1,0.088,1.18,0,1,0.082,0.58,0,0.607,0.16,2.98,0,1,0.046,0.99,0,1,0.085,1.67,0,1
93245,20110928,-123.07,38.32,0.008,-0.17,0.202,0.119,0.084,1.17,0,1,0.088,1.08,0,1,0.082,0.57,0,0.577,0.16,2.98,0,1,0.046,0.94,0,1,0.084,1.64,0,1
93245,20110929,-123.07,38.32,0.008,-0.15,0.214,0.137,0.083,1.1,0,1,0.087,0.98,0,1,0.082,0.56,0,0.506,0.16,2.97,0,1,0.046,0.88,0,1,0.084,1.61,0,1
93245,20110930,-123.07,38.32,0.008,-0.11,0.226,0.185,0.082,1.03,0,1,0.086,0.89,0,1,0.082,0.55,0,0.411,0.16,2.96,0,1,0.045,0.83,0,1,0.084,1.58,0,1
93245,20111001,-123.07,38.32,0.009,-0.03,0.208,0.232,0.082,0.96,0,1,0.086,0.81,0,1,0.082,0.54,0,0.399,0.159,2.94,0,1,0.045,0.79,0,1,0.083,1.55,0,1
93245,20111002,-123.07,38.32,0.009,0.01,0.173,0.244,0.081,0.91,0,1,0.085,0.75,0,1,0.081,0.54,0,0.399,0.159,2.93,0,1,0.045,0.75,0,1,0.083,1.51,0,1
93245,20111003,-123.07,38.32,0.009,0.04,0.155,0.28,0.081,0.85,0,1,0.085,0.7,0,1,0.081,0.54,0,0.393,0.158,2.91,0,1,0.045,0.71,0,1,0.083,1.46,0,1
93245,20111004,-123.07,38.32,0.012,0.6,0.113,0.363,0.08,0.81,0,1,0.09,0.89,0,1,0.087,0.82,0,0.429,0.158,2.89,0,1,0.046,0.77,0,1,0.085,1.54,0,1
93245,20111005,-123.07,38.32,0.018,1.85,0.071,0.488,0.083,0.89,0,1,0.103,1.46,0,1,0.1,1.54,0,0.458,0.158,2.89,0,1,0.051,1.05,0,1,0.093,1.86,0,1
93245,20111006,-123.07,38.32,0.026,3.36,0.048,0.589,0.09,1.07,0,1,0.119,2.09,0,1,0.116,2.4,0,0.548,0.161,3.07,0,1,0.058,1.49,0,1,0.102,2.29,0,1
93245,20111007,-123.07,38.32,0.034,4.74,0.036,0.655,0.096,1.27,0,1,0.135,2.73,0,1,0.133,3.23,0,0.667,0.168,3.36,0,1,0.065,1.93,0,1,0.113,2.74,0,1
93245,20111008,-123.07,38.32,0.041,5.83,0.036,0.726,0.102,1.45,0,1,0.149,3.28,0,1,0.147,3.8,0,0.768,0.175,3.7,0,1,0.072,2.31,0,1,0.123,3.13,0,1
93245,20111009,-123.07,38.32,0.047,6.73,0.018,0.845,0.108,1.6,0,1,0.162,3.77,0,1,0.159,4.27,0,0.869,0.182,4.04,0,1,0.078,2.66,0,1,0.132,3.49,0,1
93245,20111010,-123.07,38.32,0.053,7.46,0,0.952,0.114,1.74,0,1,0.175,4.23,0,1,0.171,4.69,0,0.97,0.189,4.39,0,1,0.083,2.96,0,1,0.14,3.81,0,1
93245,20111011,-123.07,38.32,0.06,7.98,0,1,0.122,1.93,0,1,0.184,4.51,0,1,0.178,4.82,0,1,0.196,4.74,0,1,0.091,3.31,0,1,0.148,4.06,0,1
93245,20111012,-123.07,38.32,0.063,7.68,0,1,0.128,2.05,0,1,0.188,4.51,0,1,0.181,4.63,0,1,0.203,5.09,0,1,0.095,3.43,0,1,0.152,4.13,0,1
93245,20111013,-123.07,38.32,0.063,6.94,0,1,0.13,2.06,0,1,0.188,4.38,0,1,0.18,4.23,0,1,0.207,5.29,0,1,0.097,3.33,0,1,0.153,4.04,0,1
93245,20111014,-123.07,38.32,0.063,6.23,0,1,0.132,2.05,0,1,0.186,4.17,0,1,0.177,3.79,0,1,0.209,5.37,0,1,0.097,3.19,0,1,0.153,3.91,0,1
93245,20111015,-123.07,38.32,0.063,5.74,0,1,0.134,2.04,0,1,0.185,4.01,0,1,0.175,3.55,0,1,0.21,5.42,0,1,0.098,3.09,0,1,0.153,3.81,0,1
93245,20111016,-123.07,38.32,0.064,5.44,0,1,0.136,2.06,0,1,0.184,3.89,0,1,0.175,3.38,0,1,0.211,5.47,0,1,0.1,3.01,0,1,0.154,3.75,0,1
93245,20111017,-123.07,38.32,0.065,5.27,0,1,0.138,2.08,0,1,0.184,3.78,0,1,0.175,3.22,0,1,0.212,5.5,0,1,0.102,2.96,0,1,0.155,3.69,0,1
93245,20111018,-123.07,38.32,0.062,4.71,0,1,0.139,2.03,0,1,0.182,3.51,0,1,0.173,3.01,0,1,0.213,5.53,0,1,0.1,2.77,0,1,0.154,3.49,0,1
93245,20111019,-123.07,38.32,0.059,4.25,0,1,0.137,1.93,0,1,0.176,3.09,0,1,0.168,2.66,0,1,0.214,5.54,0,1,0.098,2.55,0,1,0.151,3.2,0,1
93245,20111020,-123.07,38.32,0.057,3.88,0,1,0.136,1.85,0,1,0.172,2.76,0,1,0.164,2.37,0,1,0.214,5.47,0,1,0.097,2.4,0,1,0.149,2.94,0,1
93245,20111021,-123.07,38.32,0.055,3.55,0,1,0.135,1.77,0,1,0.169,2.49,0,1,0.161,2.13,0,1,0.213,5.32,0,1,0.095,2.27,0,1,0.147,2.7,0,1
93245,20111022,-123.07,38.32,0.054,3.25,0,1,0.134,1.7,0,1,0.166,2.26,0,1,0.158,1.94,0,1,0.213,5.14,0,1,0.094,2.16,0,1,0.145,2.48,0,1
93245,20111023,-123.07,38.32,0.052,2.96,0,1,0.133,1.62,0,1,0.164,2.06,0,1,0.156,1.78,0,1,0.212,4.93,0,1,0.092,2.04,0,1,0.143,2.27,0,1
93245,20111024,-123.07,38.32,0.05,2.67,0,1,0.132,1.55,0,1,0.162,1.88,0,1,0.154,1.65,0,1,0.212,4.69,0,1,0.091,1.93,0,1,0.142,2.09,0,1
93245,20111025,-123.07,38.32,0.048,2.41,0,1,0.131,1.49,0,1,0.16,1.79,0,1,0.152,1.56,0,1,0.211,4.42,0,1,0.09,1.83,0,1,0.141,2,0,1
93245,20111026,-123.07,38.32,0.047,2.13,0,1,0.13,1.43,0,1,0.158,1.76,0,1,0.151,1.48,0,1,0.211,4.15,0,1,0.088,1.73,0,1,0.139,1.95,0,1
93245,20111027,-123.07,38.32,0.045,1.89,0,1,0.129,1.38,0,1,0.156,1.73,0,1,0.149,1.42,0,1,0.21,3.92,0,1,0.087,1.63,0,1,0.138,1.91,0,1
93245,20111028,-123.07,38.32,0.044,1.67,0,1,0.128,1.33,0,1,0.155,1.69,0,1,0.148,1.37,0,1,0.209,3.77,0,1,0.086,1.53,0,1,0.137,1.86,0,1
93245,20111029,-123.07,38.32,0.043,1.46,0,1,0.127,1.28,0,1,0.153,1.63,0,1,0.147,1.33,0,1,0.209,3.65,0,1,0.085,1.44,0,1,0.136,1.83,0,1
93245,20111030,-123.07,38.32,0.041,1.27,0,1,0.126,1.24,0,1,0.152,1.58,0,1,0.146,1.3,0,1,0.208,3.57,0,1,0.084,1.35,0,1,0.135,1.79,0,1
93245,20111031,-123.07,38.32,0.04,1.12,0,1,0.125,1.19,0,1,0.151,1.52,0,1,0.145,1.27,0,1,0.208,3.52,0,1,0.083,1.28,0,1,0.134,1.75,0,1
93245,20111101,-123.07,38.32,0.04,0.99,0,1,0.124,1.14,0,1,0.15,1.46,0,1,0.144,1.25,0,1,0.207,3.5,0,1,0.082,1.21,0,1,0.133,1.71,0,1
93245,20111102,-123.07,38.32,0.039,0.9,0,1,0.123,1.1,0,1,0.148,1.41,0,1,0.143,1.23,0,1,0.207,3.49,0,1,0.081,1.16,0,1,0.132,1.68,0,1
93245,20111103,-123.07,38.32,0.038,0.82,0,1,0.122,1.05,0,1,0.147,1.35,0,1,0.142,1.22,0,1,0.206,3.48,0,1,0.08,1.11,0,1,0.131,1.67,0,1
93245,20111104,-123.07,38.32,0.037,0.73,0,1,0.121,1,0,1,0.146,1.31,0,1,0.141,1.21,0,1,0.206,3.45,0,1,0.079,1.05,0,1,0.13,1.67,0,1
93245,20111105,-123.07,38.32,0.036,0.66,0,0.97,0.12,0.95,0,1,0.145,1.27,0,1,0.14,1.19,0,1,0.205,3.4,0,1,0.078,0.98,0,1,0.129,1.66,0,1
93245,20111106,-123.07,38.32,0.039,0.67,0,0.952,0.12,0.89,0,1,0.145,1.24,0,1,0.139,1.14,0,1,0.205,3.34,0,1,0.079,0.97,0,1,0.129,1.67,0,1
93245,20111107,-123.07,38.32,0.043,0.7,0,0.952,0.12,0.85,0,1,0.146,1.21,0,1,0.14,1.1,0,1,0.205,3.29,0,1,0.081,0.96,0,1,0.131,1.63,0,1
93245,20111108,-123.07,38.32,0.045,0.7,0,0.952,0.12,0.8,0,1,0.147,1.15,0,1,0.141,1.06,0,1,0.205,3.19,0,1,0.083,0.93,0,1,0.131,1.53,0,1
93245,20111109,-123.07,38.32,0.048,0.69,0,0.952,0.12,0.76,0,1,0.148,1.08,0,1,0.141,1,0,1,0.204,3.03,0,1,0.084,0.89,0,1,0.132,1.42,0,1
93245,20111110,-123.07,38.32,0.05,0.68,0,0.946,0.12,0.72,0,1,0.149,1,0,1,0.142,0.92,0,1,0.204,2.84,0,1,0.085,0.85,0,1,0.133,1.28,0,1
93245,20111111,-123.07,38.32,0.052,0.66,0,0.821,0.121,0.7,0,1,0.15,0.92,0,1,0.143,0.83,0,1,0.204,2.64,0,1,0.087,0.82,0,1,0.134,1.15,0,1
93245,20111112,-123.07,38.32,0.057,0.67,0,0.821,0.122,0.68,0,1,0.151,0.84,0,1,0.143,0.75,0,1,0.204,2.43,0,1,0.089,0.82,0,1,0.135,1.02,0,1
93245,20111113,-123.07,38.32,0.057,0.59,0,0.792,0.122,0.67,0,1,0.151,0.76,0,1,0.144,0.69,0,1,0.204,2.2,0,1,0.09,0.76,0,1,0.136,0.88,0,1
93245,20111114,-123.07,38.32,0.057,0.49,0,0.649,0.123,0.66,0,1,0.15,0.66,0,1,0.143,0.63,0,0.994,0.203,1.97,0,1,0.09,0.69,0,1,0.135,0.78,0,1
93245,20111115,-123.07,38.32,0.057,0.41,0,0.506,0.123,0.65,0,1,0.148,0.61,0,1,0.142,0.57,0,0.964,0.203,1.76,0,1,0.09,0.62,0,1,0.135,0.74,0,1
93245,20111116,-123.07,38.32,0.057,0.35,0,0.363,0.123,0.64,0,1,0.147,0.58,0,1,0.141,0.52,0,0.821,0.203,1.61,0,1,0.09,0.56,0,0.952,0.134,0.72,0,1
93245,20111117,-123.07,38.32,0.057,0.3,0,0.226,0.123,0.61,0,1,0.146,0.55,0,1,0.14,0.47,0,0.679,0.202,1.5,0,1,0.09,0.51,0,0.827,0.134,0.68,0,1
93245,20111118,-123.07,38.32,0.058,0.27,0,0.208,0.123,0.56,0,0.905,0.145,0.52,0,0.994,0.14,0.43,0,0.536,0.201,1.4,0,1,0.09,0.46,0,0.685,0.133,0.65,0,1
93245,20111119,-123.07,38.32,0.058,0.23,0,0.095,0.123,0.5,0,0.762,0.145,0.5,0,0.994,0.139,0.4,0,0.393,0.202,1.33,0,1,0.09,0.41,0,0.56,0.133,0.62,0,1
93245,20111120,-123.07,38.32,0.06,0.23,0,0.054,0.124,0.45,0,0.655,0.145,0.5,0,0.964,0.139,0.36,0,0.25,0.202,1.29,0,1,0.092,0.37,0,0.47,0.134,0.6,0,1
93245,20111121,-123.07,38.32,0.064,0.26,0,0.143,0.131,0.47,0,0.655,0.155,0.63,0,0.964,0.141,0.37,0,0.25,0.203,1.25,0,1,0.098,0.39,0,0.47,0.139,0.62,0,1
93245,20111122,-123.07,38.32,0.067,0.27,0,0.143,0.138,0.48,0,0.655,0.164,0.72,0,0.964,0.145,0.4,0,0.28,0.204,1.24,0,1,0.102,0.39,0,0.47,0.144,0.64,0,1
93245,20111123,-123.07,38.32,0.07,0.27,0,0.143,0.144,0.49,0,0.655,0.171,0.79,0,0.964,0.149,0.41,0,0.423,0.206,1.24,0,1,0.107,0.4,0,0.512,0.148,0.65,0,1
93245,20111124,-123.07,38.32,0.073,0.28,0,0.161,0.15,0.49,0,0.655,0.178,0.83,0,0.964,0.153,0.42,0,0.565,0.207,1.25,0,1,0.112,0.41,0,0.542,0.152,0.66,0,1
93245,20111125,-123.07,38.32,0.077,0.32,0,0.19,0.16,0.55,0,0.75,0.187,0.91,0,0.97,0.158,0.46,0,0.708,0.209,1.25,0,1,0.119,0.45,0,0.685,0.158,0.69,0,1
93245,20111126,-123.07,38.32,0.079,0.31,0,0.19,0.17,0.61,0,0.893,0.195,0.96,0,0.97,0.163,0.49,0,0.851,0.211,1.23,0,1,0.124,0.47,0,0.762,0.164,0.7,0,1
93245,20111127,-123.07,38.32,0.078,0.27,0,0.137,0.177,0.64,0,1,0.201,0.97,0,1,0.168,0.52,0,0.994,0.214,1.21,0,1,0.127,0.45,0,0.708,0.168,0.68,0,1
93245,20111128,-123.07,38.32,0.076,0.2,0,0.048,0.177,0.6,0,1,0.198,0.85,0,1,0.169,0.5,0,0.94,0.215,1.17,0,1,0.127,0.39,0,0.565,0.167,0.61,0,1
93245,20111129,-123.07,38.32,0.075,0.15,0,0.048,0.178,0.57,0,0.946,0.195,0.75,0,1,0.169,0.46,0,0.798,0.216,1.11,0,1,0.126,0.35,0,0.423,0.166,0.55,0,0.964
93245,20111130,-123.07,38.32,0.074,0.1,0,0.048,0.179,0.53,0,0.804,0.193,0.67,0,1,0.168,0.42,0,0.655,0.217,1.03,0,1,0.127,0.31,0,0.286,0.166,0.5,0,0.821
93245,20111201,-123.07,38.32,0.073,0.05,0,0.03,0.179,0.5,0,0.661,0.191,0.61,0,0.905,0.168,0.39,0,0.512,0.218,0.95,0,1,0.126,0.27,0,0.238,0.166,0.45,0,0.679
93245,20111202,-123.07,38.32,0.071,-0.03,0,0,0.175,0.43,0,0.518,0.187,0.51,0,0.762,0.166,0.34,0,0.369,0.218,0.89,0,1,0.123,0.19,0,0.095,0.163,0.39,0,0.536
93245,20111203,-123.07,38.32,0.069,-0.1,0,0,0.172,0.37,0,0.375,0.184,0.43,0,0.619,0.164,0.28,0,0.226,0.218,0.84,0,1,0.12,0.12,0,0,0.161,0.34,0,0.393
93245,20111204,-123.07,38.32,0.067,-0.16,0.107,0,0.17,0.31,0,0.232,0.18,0.37,0,0.476,0.162,0.23,0,0.083,0.218,0.8,0,1,0.118,0.07,0,0,0.159,0.29,0,0.25
93245,20111205,-123.07,38.32,0.065,-0.22,0.25,0,0.167,0.26,0,0.089,0.177,0.31,0,0.333,0.16,0.19,0,0,0.217,0.77,0,1,0.116,0.01,0,0,0.157,0.24,0,0.107
93245,20111206,-123.07,38.32,0.064,-0.27,0.393,0,0.165,0.22,0,0,0.175,0.25,0,0.19,0.159,0.14,0,0,0.216,0.75,0,1,0.114,-0.03,0,0,0.156,0.2,0,0
93245,20111207,-123.07,38.32,0.062,-0.32,0.536,0,0.162,0.18,0,0,0.172,0.2,0,0.048,0.157,0.1,0,0,0.215,0.73,0,1,0.112,-0.08,0,0,0.154,0.15,0,0
93245,20111208,-123.07,38.32,0.06,-0.37,0.679,0,0.16,0.14,0,0,0.17,0.15,0,0,0.156,0.06,0,0,0.214,0.71,0,1,0.11,-0.12,0,0,0.152,0.11,0,0
93245,20111209,-123.07,38.32,0.059,-0.41,0.821,0,0.159,0.1,0,0,0.168,0.11,0,0,0.155,0.02,0,0,0.213,0.69,0,1,0.109,-0.16,0,0,0.151,0.08,0,0
93245,20111210,-123.07,38.32,0.058,-0.45,0.964,0,0.157,0.06,0,0,0.166,0.06,0,0,0.154,-0.02,0,0,0.212,0.66,0,1,0.107,-0.19,0,0,0.149,0.04,0,0
93245,20111211,-123.07,38.32,0.057,-0.49,1,0,0.155,0.03,0,0,0.165,0.02,0,0,0.153,-0.06,0,0,0.211,0.63,0,1,0.106,-0.22,0.042,0,0.148,0.01,0,0
93245,20111212,-123.07,38.32,0.056,-0.52,1,0,0.154,0,0,0,0.164,-0.01,0,0,0.152,-0.1,0,0,0.211,0.6,0,1,0.105,-0.25,0.149,0,0.147,-0.02,0,0
93245,20111213,-123.07,38.32,0.055,-0.56,1,0,0.152,-0.02,0,0,0.162,-0.05,0,0,0.151,-0.13,0,0,0.21,0.58,0,1,0.104,-0.28,0.292,0,0.146,-0.05,0,0
93245,20111214,-123.07,38.32,0.054,-0.6,1,0,0.151,-0.05,0,0,0.161,-0.09,0,0,0.15,-0.17,0,0,0.21,0.56,0,1,0.103,-0.32,0.435,0,0.145,-0.08,0,0
93245,20111215,-123.07,38.32,0.054,-0.63,0.988,0,0.15,-0.07,0,0,0.16,-0.13,0,0,0.149,-0.21,0,0,0.21,0.55,0,1,0.102,-0.35,0.565,0,0.145,-0.11,0,0
93245,20111216,-123.07,38.32,0.058,-0.61,0.94,0,0.148,-0.09,0,0,0.159,-0.17,0,0,0.149,-0.24,0.024,0,0.21,0.55,0,1,0.103,-0.35,0.565,0,0.145,-0.11,0,0
93245,20111217,-123.07,38.32,0.062,-0.61,0.94,0,0.148,-0.1,0,0,0.158,-0.2,0,0,0.148,-0.27,0.054,0,0.21,0.55,0,1,0.105,-0.35,0.565,0,0.145,-0.12,0,0
93245,20111218,-123.07,38.32,0.065,-0.61,0.94,0,0.148,-0.09,0,0,0.157,-0.22,0,0,0.147,-0.3,0.125,0,0.21,0.55,0,1,0.106,-0.34,0.524,0,0.145,-0.12,0,0
93245,20111219,-123.07,38.32,0.068,-0.6,0.94,0,0.149,-0.09,0,0,0.156,-0.24,0,0,0.147,-0.32,0.173,0,0.21,0.56,0,1,0.108,-0.33,0.417,0,0.146,-0.11,0,0
93245,20111220,-123.07,38.32,0.07,-0.59,0.94,0,0.149,-0.08,0,0,0.156,-0.26,0,0,0.146,-0.33,0.173,0,0.21,0.59,0,1,0.11,-0.31,0.274,0,0.146,-0.1,0,0
93245,20111221,-123.07,38.32,0.073,-0.59,0.94,0,0.15,-0.07,0,0,0.155,-0.27,0,0,0.146,-0.35,0.238,0,0.209,0.61,0,1,0.111,-0.29,0.131,0,0.147,-0.09,0,0
93245,20111222,-123.07,38.32,0.074,-0.58,0.952,0,0.151,-0.05,0,0,0.155,-0.27,0,0,0.145,-0.36,0.327,0,0.209,0.64,0,1,0.113,-0.28,0,0,0.147,-0.08,0,0
93245,20111223,-123.07,38.32,0.072,-0.63,1,0,0.151,-0.05,0,0,0.154,-0.28,0,0,0.145,-0.37,0.44,0,0.208,0.66,0,1,0.111,-0.31,0.012,0,0.146,-0.1,0,0
93245,20111224,-123.07,38.32,0.07,-0.67,1,0,0.151,-0.05,0,0,0.154,-0.3,0,0,0.144,-0.38,0.554,0,0.207,0.68,0,1,0.11,-0.34,0.155,0,0.145,-0.12,0,0
93245,20111225,-123.07,38.32,0.067,-0.71,1,0,0.15,-0.07,0,0,0.153,-0.32,0,0,0.144,-0.4,0.625,0,0.207,0.71,0,1,0.109,-0.38,0.298,0,0.144,-0.16,0,0
93245,20111226,-123.07,38.32,0.065,-0.74,1,0,0.149,-0.09,0,0,0.152,-0.34,0.012,0,0.143,-0.42,0.72,0,0.206,0.72,0,1,0.107,-0.42,0.44,0,0.143,-0.2,0,0
93245,20111227,-123.07,38.32,0.064,-0.77,1,0,0.147,-0.12,0,0,0.151,-0.36,0.03,0,0.142,-0.45,0.863,0,0.206,0.72,0,1,0.106,-0.46,0.583,0,0.142,-0.24,0,0
93245,20111228,-123.07,38.32,0.062,-0.8,1,0,0.146,-0.15,0,0,0.15,-0.39,0.119,0,0.142,-0.47,0.94,0,0.206,0.72,0,1,0.104,-0.51,0.726,0,0.141,-0.29,0.083,0
93245,20111229,-123.07,38.32,0.061,-0.82,1,0,0.145,-0.18,0,0,0.149,-0.41,0.256,0,0.141,-0.49,0.994,0,0.205,0.72,0,1,0.103,-0.55,0.869,0,0.14,-0.34,0.226,0
93245,20111230,-123.07,38.32,0.06,-0.84,1,0,0.144,-0.21,0,0,0.148,-0.44,0.399,0,0.14,-0.51,1,0,0.206,0.72,0,1,0.102,-0.58,1,0,0.14,-0.38,0.369,0
93245,20111231,-123.07,38.32,0.062,-0.81,1,0,0.143,-0.24,0,0,0.148,-0.46,0.542,0,0.14,-0.53,1,0,0.206,0.72,0,1,0.103,-0.59,0.958,0,0.14,-0.4,0.381,0
93245,20120101,-123.07,38.32,0.065,-0.78,1,0,0.143,-0.27,0,0,0.147,-0.48,0.685,0,0.14,-0.54,1,0,0.206,0.72,0,1,0.104,-0.6,0.958,0,0.14,-0.42,0.381,0
93245,20120102,-123.07,38.32,0.068,-0.75,1,0,0.143,-0.28,0,0,0.147,-0.5,0.815,0,0.139,-0.55,1,0,0.206,0.72,0,1,0.106,-0.59,0.958,0,0.141,-0.43,0.381,0
93245,20120103,-123.07,38.32,0.07,-0.72,1,0,0.144,-0.3,0,0,0.146,-0.52,0.94,0,0.139,-0.57,1,0,0.206,0.71,0,1,0.107,-0.59,0.958,0,0.141,-0.43,0.381,0
93245,20120104,-123.07,38.32,0.073,-0.69,1,0,0.144,-0.31,0,0,0.146,-0.54,0.994,0,0.139,-0.58,1,0,0.205,0.71,0,1,0.108,-0.58,0.958,0,0.141,-0.44,0.31,0
93245,20120105,-123.07,38.32,0.075,-0.66,1,0,0.144,-0.33,0,0,0.146,-0.55,1,0,0.138,-0.59,1,0,0.205,0.71,0,1,0.109,-0.58,0.958,0,0.142,-0.44,0.173,0
93245,20120106,-123.07,38.32,0.076,-0.63,1,0,0.144,-0.34,0,0,0.145,-0.56,1,0,0.138,-0.6,1,0,0.205,0.7,0,1,0.11,-0.57,0.958,0,0.142,-0.44,0.048,0